| time (UTC) | temp C | wind direction | speed KPH | gust KPH | rain 1hr cm | rain 24hr cm | rain mn cm | humidity % | barometer mb |
| 20260505054028 | 17 | 225 | 0.0 | 1.6 | 0.00 | 0.00 | 0.00 | 66 | 1013.3 |
| 20260505053031 | 17 | 210 | 3.2 | 4.8 | 0.00 | 0.00 | 0.00 | 65 | 1013.4 |
| 20260505052016 | 18 | 144 | 3.2 | 6.4 | 0.00 | 0.00 | 0.00 | 64 | 1013.4 |
| 20260505051019 | 18 | 149 | 1.6 | 4.8 | 0.00 | 0.00 | 0.00 | 63 | 1013.4 |
| 20260505041020 | 19 | 112 | 3.2 | 6.4 | 0.00 | 0.00 | 0.00 | 59 | 1013.5 |
| 20260505040023 | 20 | 96 | 3.2 | 4.8 | 0.00 | 0.00 | 0.00 | 59 | 1013.3 |
| 20260505035026 | 20 | 259 | 3.2 | 4.8 | 0.00 | 0.00 | 0.00 | 59 | 1013.3 |
| 20260505034044 | 20 | 133 | 4.8 | 8.0 | 0.00 | 0.00 | 0.00 | 59 | 1013.4 |
| 20260505033020 | 20 | 152 | 4.8 | 6.4 | 0.00 | 0.00 | 0.00 | 59 | 1013.4 |
| 20260505032018 | 20 | 144 | 4.8 | 8.0 | 0.00 | 0.00 | 0.00 | 59 | 1013.3 |
| 20260505031021 | 20 | 145 | 1.6 | 8.0 | 0.00 | 0.00 | 0.00 | 58 | 1013.2 |
| 20260505030024 | 20 | 187 | 4.8 | 6.4 | 0.00 | 0.00 | 0.00 | 58 | 1013.2 |
| 20260505025027 | 20 | 183 | 3.2 | 6.4 | 0.00 | 0.00 | 0.00 | 56 | 1013.2 |
| 20260505024030 | 20 | 141 | 4.8 | 6.4 | 0.00 | 0.00 | 0.00 | 55 | 1013.2 |
| 20260505023015 | 20 | 140 | 4.8 | 8.0 | 0.00 | 0.00 | 0.00 | 55 | 1013.1 |
| 20260505022018 | 20 | 239 | 3.2 | 6.4 | 0.00 | 0.00 | 0.00 | 54 | 1013.0 |
| 20260505021021 | 21 | 122 | 3.2 | 8.0 | 0.00 | 0.00 | 0.00 | 54 | 1013.0 |
| 20260505020025 | 21 | 121 | 4.8 | 8.0 | 0.00 | 0.00 | 0.00 | 53 | 1012.8 |
| 20260505015028 | 21 | 142 | 3.2 | 8.0 | 0.00 | 0.00 | 0.00 | 52 | 1012.6 |
| 20260505014031 | 21 | 118 | 3.2 | 4.8 | 0.00 | 0.00 | 0.00 | 51 | 1012.7 |
| 20260505013016 | 22 | 208 | 3.2 | 4.8 | 0.00 | 0.00 | 0.00 | 50 | 1012.7 |
| 20260505012019 | 22 | 166 | 4.8 | 6.4 | 0.00 | 0.00 | 0.00 | 49 | 1012.7 |
| 20260505011022 | 22 | 135 | 3.2 | 6.4 | 0.00 | 0.00 | 0.00 | 48 | 1012.7 |
| 20260505010025 | 23 | 182 | 4.8 | 8.0 | 0.00 | 0.00 | 0.00 | 47 | 1012.6 |
| 20260505005028 | 23 | 132 | 4.8 | 9.7 | 0.00 | 0.00 | 0.00 | 47 | 1012.5 |
| 20260505004032 | 23 | 148 | 4.8 | 8.0 | 0.00 | 0.00 | 0.00 | 45 | 1012.5 |
| 20260505003017 | 24 | 177 | 3.2 | 8.0 | 0.00 | 0.00 | 0.00 | 45 | 1012.5 |
| 20260505002040 | 24 | 98 | 6.4 | 9.7 | 0.00 | 0.00 | 0.00 | 43 | 1012.5 |
| 20260505001024 | 25 | 97 | 4.8 | 9.7 | 0.00 | 0.00 | 0.00 | 42 | 1012.5 |
| 20260505000021 | 25 | 140 | 6.4 | 11.3 | 0.00 | 0.00 | 0.00 | 41 | 1012.6 |
| 20260504235017 | 26 | 80 | 6.4 | 11.3 | 0.00 | 0.00 | 0.00 | 40 | 1012.7 |
| 20260504234015 | 26 | 204 | 8.0 | 12.9 | 0.00 | 0.00 | 0.00 | 39 | 1012.7 |
| 20260504233018 | 27 | 181 | 6.4 | 16.1 | 0.00 | 0.00 | 0.00 | 38 | 1012.7 |
| 20260504232041 | 28 | 233 | 8.0 | 14.5 | 0.00 | 0.00 | 0.00 | 37 | 1012.7 |
| 20260504231024 | 28 | 164 | 8.0 | 19.3 | 0.00 | 0.00 | 0.00 | 36 | 1012.7 |
| 20260504230028 | 28 | 194 | 9.7 | 20.9 | 0.00 | 0.00 | 0.00 | 36 | 1012.8 |
| 20260504225031 | 28 | 102 | 8.0 | 17.7 | 0.00 | 0.00 | 0.00 | 36 | 1012.6 |
| 20260504224016 | 27 | 135 | 8.0 | 12.9 | 0.00 | 0.00 | 0.00 | 37 | 1012.8 |
| 20260504223019 | 28 | 159 | 6.4 | 12.9 | 0.00 | 0.00 | 0.00 | 36 | 1012.8 |
| 20260504222022 | 29 | 142 | 8.0 | 16.1 | 0.00 | 0.00 | 0.00 | 35 | 1012.8 |
| 20260504221025 | 29 | 140 | 9.7 | 17.7 | 0.00 | 0.00 | 0.00 | 34 | 1012.7 |
| 20260504220028 | 30 | 114 | 8.0 | 14.5 | 0.00 | 0.00 | 0.00 | 34 | 1012.7 |
| 20260504215031 | 30 | 139 | 6.4 | 9.7 | 0.00 | 0.00 | 0.00 | 35 | 1012.8 |
| 20260504214017 | 30 | 166 | 8.0 | 16.1 | 0.00 | 0.00 | 0.00 | 34 | 1012.8 |
| 20260504213020 | 31 | 132 | 6.4 | 11.3 | 0.00 | 0.00 | 0.00 | 33 | 1012.9 |
| 20260504212023 | 30 | 117 | 8.0 | 12.9 | 0.00 | 0.00 | 0.00 | 33 | 1013.0 |
| 20260504211027 | 31 | 119 | 8.0 | 12.9 | 0.00 | 0.00 | 0.00 | 33 | 1013.1 |
| 20260504210029 | 31 | 116 | 9.7 | 17.7 | 0.00 | 0.00 | 0.00 | 32 | 1013.2 |
| 20260504205015 | 31 | 236 | 4.8 | 8.0 | 0.00 | 0.00 | 0.00 | 34 | 1013.1 |
| 20260504204018 | 31 | 126 | 6.4 | 9.7 | 0.00 | 0.00 | 0.00 | 33 | 1013.4 |
| 20260504203021 | 30 | 107 | 9.7 | 14.5 | 0.00 | 0.00 | 0.00 | 34 | 1013.6 |
| 20260504202018 | 31 | 109 | 9.7 | 14.5 | 0.00 | 0.00 | 0.00 | 34 | 1013.7 |
| 20260504201015 | 31 | 198 | 8.0 | 16.1 | 0.00 | 0.00 | 0.00 | 33 | 1013.8 |
| 20260504200030 | 31 | 127 | 6.4 | 12.9 | 0.00 | 0.00 | 0.00 | 34 | 1014.1 |
| 20260504195015 | 31 | 174 | 6.4 | 9.7 | 0.00 | 0.00 | 0.00 | 34 | 1014.2 |
| 20260504194019 | 30 | 98 | 9.7 | 17.7 | 0.00 | 0.00 | 0.00 | 35 | 1014.4 |
| 20260504193022 | 30 | 257 | 8.0 | 12.9 | 0.00 | 0.00 | 0.00 | 36 | 1014.6 |
| 20260504192025 | 30 | 285 | 9.7 | 17.7 | 0.00 | 0.00 | 0.00 | 35 | 1014.7 |
| 20260504191028 | 30 | 158 | 8.0 | 11.3 | 0.00 | 0.00 | 0.00 | 35 | 1014.8 |
| 20260504190031 | 30 | 167 | 8.0 | 12.9 | 0.00 | 0.00 | 0.00 | 34 | 1015.0 |
| 20260504185016 | 30 | 63 | 8.0 | 12.9 | 0.00 | 0.00 | 0.00 | 34 | 1015.2 |
| 20260504184020 | 30 | 63 | 9.7 | 19.3 | 0.00 | 0.00 | 0.00 | 34 | 1015.2 |
| 20260504183023 | 30 | 75 | 8.0 | 12.9 | 0.00 | 0.00 | 0.00 | 36 | 1015.3 |
| 20260504182026 | 30 | 281 | 6.4 | 14.5 | 0.00 | 0.00 | 0.00 | 36 | 1015.3 |
| 20260504181029 | 30 | 207 | 6.4 | 12.9 | 0.00 | 0.00 | 0.00 | 36 | 1015.3 |
| 20260504180032 | 29 | 114 | 9.7 | 14.5 | 0.00 | 0.00 | 0.00 | 36 | 1015.5 |
| 20260504175017 | 28 | 133 | 6.4 | 9.7 | 0.00 | 0.00 | 0.00 | 38 | 1015.9 |
| 20260504174020 | 28 | 258 | 9.7 | 12.9 | 0.00 | 0.00 | 0.00 | 39 | 1015.9 |
| 20260504173024 | 28 | 165 | 8.0 | 11.3 | 0.00 | 0.00 | 0.00 | 38 | 1016.0 |
| 20260504172026 | 28 | 130 | 8.0 | 14.5 | 0.00 | 0.00 | 0.00 | 40 | 1016.1 |
| 20260504171024 | 28 | 147 | 8.0 | 11.3 | 0.00 | 0.00 | 0.00 | 40 | 1016.2 |
| 20260504151112 | 23 | 290 | 6.4 | 9.7 | 0.00 | 0.00 | 0.00 | 53 | 1017.2 |
| 20260504141032 | 20 | 274 | 4.8 | 11.3 | 0.00 | 0.00 | 0.00 | 64 | 1017.4 |
| 20260504081020 | 16 | 105 | 4.8 | 8.0 | 0.00 | 0.00 | 0.00 | 68 | 1016.9 |